Home   Weather   Enugu   Past weeks

Flag for Nigeria Past Weather in Enugu, Nigeria — Yesterday and Last 2 Weeks

Now
75 °F

Broken clouds.


Feels Like: 74 °F
Forecast: 72 / 82 °F
Wind: No wind

Location: Malabo/Fernando Poo

Current Time: Sep 25, 2016 at 8:22:32 AM

Latest Report: Sep 25, 2016 at 7:00 AM


Visibility: N/A

Pressure: 29.92 "Hg

Humidity: 94%

Dew Point: 73 °F

Location of EnuguLocation

Past Weather in Enugu — Graph

°F

Enugu Temperature Yesterday

Maximum temperature yesterday: 81 °F (at 4:00 PM)
Minimum temperature yesterday: 75 °F (at 5:00 AM)
Average temperature yesterday: 77 °F

High & Low Weather Summary for the Past Weeks

 TemperatureHumidityPressure
High86 °F (Sep 17, 12:00 PM)94% (Sep 10, 7:00 AM)30.01 "Hg (Sep 10, 7:00 AM)
Low70 °F (Sep 13, 4:00 AM)66% (Sep 17, 11:00 AM)29.83 "Hg (Sep 20, 4:00 PM)
Average78 °F86%29.94 "Hg
* Reported Sep 10 7:00 AM — Sep 25 7:00 AM, Enugu, Weather by CustomWeather, © 2016

Note: Actual official high and low records may vary slightly from our data, if they occured in-between our weather recording intervals... More about our weather records

Advertising

Enugu Weather History for the Previous 24 Hours

Scroll right to see more
 ConditionsComfort  
Time TempWeatherWind HumidityBarometerVisibility
7:00 AM
Sun, Sep 25
75 °FBroken clouds.No wind94%29.92 "HgN/A
6:00 AM75 °FPassing clouds.No wind89%29.92 "HgN/A
5:00 AM75 °FPassing clouds.2 mph94%29.92 "HgN/A
4:00 AM75 °FPassing clouds.2 mph89%29.92 "HgN/A
3:00 AM75 °FPassing clouds.No wind89%29.89 "HgN/A
2:00 AM73 °FPassing clouds.2 mph94%29.92 "HgN/A
1:00 AM73 °FPassing clouds.No wind94%29.92 "HgN/A
12:00 AM73 °FPassing clouds.1 mph94%29.95 "HgN/A
11:00 PM
Sat, Sep 24
75 °FPassing clouds.2 mph89%29.95 "HgN/A
10:00 PM75 °FPassing clouds.3 mph89%29.92 "HgN/A
9:00 PM75 °FPassing clouds.6 mph89%29.92 "HgN/A
8:00 PM75 °FPassing clouds.7 mph94%29.89 "HgN/A
7:00 PM75 °FPassing clouds.5 mph94%29.92 "HgN/A
6:00 PM77 °FScattered clouds.5 mph89%29.89 "HgN/A
5:00 PM79 °FPartly sunny.7 mph84%29.89 "HgN/A
4:00 PM81 °FBroken clouds.6 mph84%29.89 "HgN/A
3:00 PM79 °FPartly sunny.6 mph84%29.89 "HgN/A
2:00 PM77 °FBroken clouds.6 mph89%29.92 "HgN/A
1:00 PM79 °FBroken clouds.6 mph89%29.92 "HgN/A
12:00 PM77 °FLight rain. Broken clouds.5 mph89%29.95 "Hg5 mi
11:00 AM77 °FThunderstorms. Partly sunny.6 mph89%30.01 "Hg5 mi
10:00 AM75 °FThunderstorms. Partly sunny.5 mph94%30.01 "Hg5 mi
9:00 AM75 °FThunderstorms. Partly sunny.6 mph94%30.01 "Hg5 mi
8:00 AM75 °FThunderstorms. Broken clouds.6 mph94%29.98 "HgN/A
Weather by CustomWeather, © 2016

See weather overviewHow to use our weather pages